Location: Devore Heights
(34.2372°N, 117.4156°W)
Time: 01:33:56
(UTC+00:00)

Altair - Pass Details

Date: 17 September 2024
Orbit: 1501 x 1682 km, 47.2° (Epoch: 09 October)

Event Time Altitude Azimuth Distance (km) Brightness Sun altitude
Exits shadow 12:49:27 - 292° (WNW) 4,409 9.4 -10.1°
Reaches altitude 10° 12:51:12 10° 296° (WNW) 3,928 9.2 -9.8°
Maximum altitude 13:00:31 39° 3° (N) 2,344 8.6 -7.9°
Drops below altitude 10° 13:09:50 10° 70° (ENE) 3,930 11.2 -6.0°
Sets 13:13:19 0° 78° (ENE) 4,903 12.8 -5.2°
